Location: Unspecified
(0.0000°N, 0.0000°E)
Time: 11:56:55
(UTC+00:00)

Tiros 1 despin weight - Visible Passes

Search period start: 27 March 2015 00:00
Search period end: 06 April 2015 00:00
Orbit: 599 x 648 km, 48.2° (Epoch: 26 March)

Date Brightness Start Highest point End Pass type
(mag) Time Alt. Az. Time Alt. Az. Time Alt. Az.
27 Mar ? 05:12:29 10° NNW 05:16:52 59° NE 05:21:20 10° SE visible
28 Mar ? 03:52:15 11° NNE 03:53:29 13° NE 03:55:36 10° ENE visible
28 Mar ? 05:30:50 10° WNW 05:35:07 45° SW 05:39:27 10° SSE visible
29 Mar ? 04:11:18 34° NE 04:11:52 35° NE 04:15:59 10° ESE visible
30 Mar ? 04:30:18 74° SSW 04:30:18 74° SSW 04:34:36 10° SE visible
31 Mar ? 04:49:09 24° SSW 04:49:09 24° SSW 04:52:07 10° S visible
